Vertical_Velocity
-5 -4 -6 -4 -1 -2 -2 -3 -1 -2 -1 -1 -1 -3 0 -2 -3 1 -10 -3 1 2 3 0 2 1 3 4 -0 -2 10 -0 -8 3 -6 1 1 2 -2 -2 -1 0 3 3 -2
-4 -3 -4 -3 -5 -4 -3 -1 -3 -2 -3 -1 -1 -1 -4 -4 -5 -1 4 -0 -2 -2 1 3 6 5 3 -1 1 7 7 -8 -3 -2 -0 -1 1 -2 2 2 2 1 -2 5 2
-4 -6 -6 -6 -2 -2 -2 -4 -0 -1 1 -1 -2 -0 1 -3 -4 5 1 3 -2 1 -5 -4 11 6 9 4 1 -4 -3 -5 -5 -0 0 -0 3 -0 0 3 -4 -6 -4 0 1
1 1 -0 -2 -3 -4 -4 -4 -3 -0 3 1 -1 1 -3 3 6 0 1 0 3 1 -3 4 3 12 6 1 -2 10 -1 -0 -2 0 1 -0 1 1 1 3 4 -1 0 -2 0
-3 -0 2 0 -3 -2 -4 -1 0 -1 -3 -2 0 2 6 6 -9 1 0 -4 2 1 2 0 6 3 -0 -1 7 9 -3 1 -2 -1 1 0 0 0 1 0 2 2 1 -1 0
-2 -2 -3 -3 -1 -2 -4 -3 -3 1 -2 3 3 -0 2 7 0 0 -2 1 1 0 5 13 -5 -7 -0 -0 4 -5 -1 -3 1 -1 -0 2 0 1 2 -1 2 5 1 -0 1
3 4 3 -1 -1 -5 -5 -3 -4 1 -1 1 1 4 3 -32 -6 -2 4 -4 3 1 -4 2 12 6 -3 4 -4 1 5 4 1 -2 -2 0 5 -1 0 0 1 3 4 2 0
-1 -0 -2 1 1 -2 -1 -4 -5 3 1 -3 0 8 -9 -7 -2 1 2 -5 -1 1 -5 2 3 6 7 4 10 8 10 7 -2 2 -1 7 -14 -4 1 -1 1 2 2 2 2
1 1 -0 -3 -2 -4 -6 -5 -3 -2 -3 1 2 -1 -3 -4 2 3 4 -2 -3 1 -1 5 4 -1 16 4 6 6 -2 3 9 -1 -0 5 -6 -3 0 1 1 2 1 1 3
-1 -1 -2 0 -3 -1 -4 -3 -3 -2 1 -0 -3 7 -1 -1 0 -1 4 -0 -1 3 7 9 1 -0 5 9 -9 -3 4 2 -3 2 3 3 -1 1 1 2 -1 0 2 2 1
-2 -2 -1 -0 -1 -5 -9 -15 -23 2 -9 2 -1 -3 -3 -2 4 2 -2 2 4 4 2 3 2 -4 -7 -5 -4 -2 2 -2 -1 1 4 -3 -1 -3 -1 0 1 1 2 1 3
-4 -3 -3 -2 -4 0 2 -12 2 6 -13 4 -2 -4 2 4 -3 4 -3 10 -4 -2 5 4 -3 -5 -1 1 1 2 -0 -1 4 1 7 1 -2 -2 0 -3 -0 0 2 1 1
-4 -4 -4 -2 -3 -5 -3 2 3 -1 5 -15 -1 1 2 3 -1 -2 -2 0 0 4 -0 -3 -1 -0 -3 3 3 0 -4 -0 -8 2 1 2 1 4 2 1 1 0 1 3 1
1 -2 -1 -6 -4 -2 -2 1 -1 -1 3 -3 1 5 4 3 2 -2 1 -1 2 -3 0 -3 1 -2 1 -0 2 2 -1 -2 0 4 1 4 0 2 0 2 1 1 1 1 1
-1 -0 -5 -2 1 -1 2 0 -1 -3 1 1 -2 -5 -4 5 3 5 -2 1 0 -1 7 3 -0 2 3 -10 1 -2 -1 -2 -0 1 3 5 4 6 1 3 1 1 2 1 1
-2 1 -0 -4 4 3 2 0 -2 12 1 -3 1 -4 -8 -3 -2 -5 3 -3 -1 0 -1 1 1 -0 0 0 -2 -1 -0 -1 1 0 5 -5 4 -0 0 -4 2 3 2 1 -0
2 0 -2 -1 -3 -2 0 0 5 3 -3 -5 -1 -1 2 -3 -5 1 0 1 2 3 2 5 3 2 -2 -3 5 4 4 4 10 7 -0 0 6 -3 2 1 -0 -1 2 1 1
-1 -2 -2 3 3 -1 1 2 -2 3 1 -4 2 -4 4 3 -4 -4 -4 -0 -0 -1 -1 -1 13 1 -1 -0 -7 -4 -3 -1 -1 -1 2 1 -2 4 1 0 -0 1 -1 1 1
-3 -4 2 0 -2 -3 -1 -6 7 3 6 3 -10 -0 -3 -5 8 1 1 2 3 2 3 0 4 0 -1 -0 -0 4 4 3 -2 1 2 -2 2 5 1 1 1 1 2 1 0
-5 -2 -4 -3 -4 -4 -8 1 0 2 2 2 3 3 1 -2 -1 -3 1 5 -1 1 2 2 1 1 2 -0 0 3 -0 7 0 0 1 2 -0 3 2 1 1 3 1 1 1
-4 1 -2 1 -5 -12 -1 1 -0 -1 6 5 1 -0 3 3 3 0 4 -0 -1 -3 0 -0 0 6 4 1 -1 2 1 -1 -1 2 1 0 5 2 -0 -1 -2 -0 -0 -1 0
-3 -0 -6 -6 -16 -0 0 4 2 -2 -2 -1 4 2 3 0 0 -1 3 5 1 4 1 2 0 0 3 1 0 1 0 -1 4 2 1 3 8 0 -0 -0 -1 -0 -1 0 1
-2 -2 -2 -6 -2 -1 -4 -2 2 -3 -1 -2 -0 2 0 1 3 1 -0 -1 -2 0 4 1 -0 1 4 3 2 1 1 -0 -0 0 0 2 8 0 0 1 0 -0 0 0 1
-1 -1 -3 -7 -1 -1 0 -1 -3 -3 -1 1 1 -1 -4 -1 -1 -2 -3 -1 -1 1 1 -3 -0 2 -0 3 -1 1 1 0 0 2 -1 -0 3 2 2 0 1 0 1 0 -0
-2 1 -0 -0 -1 -1 0 2 -1 -3 -1 -0 -4 3 6 1 -1 -0 -1 -5 -1 1 -1 -2 -0 -1 1 1 -0 -0 -1 0 -0 -0 2 2 -1 1 1 0 1 -0 1 0 -0
-1 1 -1 0 -0 -1 -0 -1 1 -5 5 -3 3 -0 1 2 6 1 3 1 5 -10 -0 -2 3 0 0 -0 -0 -0 0 -0 -0 1 0 -0 0 0 -0 -0 0 0 -0 -0 -1
-1 -4 -1 -0 0 0 -0 -1 -1 2 -5 1 5 4 -1 2 2 0 1 -0 2 3 0 -0 0 0 2 0 -0 3 0 -0 0 0 -1 0 3 0 1 0 0 -0 -0 -0 -1
Height
1533 1529 1526 1524 1521 1518 1515 1511 1507 1504 1500 1497 1493 1490 1488 1484 1481 1479 1476 1475 1472 1475 1477 1479 1482 1483 1485 1487 1489 1490 1483 1472 1470 1470 1466 1470 1470 1474 1475 1480 1483 1484 1484 1484 1486
1531 1528 1525 1523 1519 1515 1512 1509 1505 1501 1497 1493 1489 1485 1482 1480 1477 1472 1470 1466 1465 1468 1473 1477 1477 1479 1480 1482 1483 1483 1475 1469 1468 1468 1466 1469 1469 1471 1473 1476 1481 1483 1484 1486 1487
1530 1527 1524 1521 1517 1514 1510 1506 1502 1497 1493 1489 1485 1482 1479 1477 1475 1467 1465 1464 1464 1465 1467 1470 1477 1477 1476 1476 1476 1474 1468 1469 1473 1472 1471 1470 1470 1471 1470 1472 1473 1478 1482 1487 1489
1530 1526 1522 1519 1515 1511 1507 1503 1498 1494 1489 1484 1480 1476 1475 1477 1472 1465 1464 1462 1462 1459 1462 1466 1470 1471 1469 1468 1469 1470 1469 1471 1472 1472 1472 1471 1470 1469 1470 1471 1471 1474 1478 1484 1490
1530 1526 1522 1518 1513 1509 1504 1499 1494 1489 1484 1479 1476 1474 1474 1472 1463 1464 1461 1460 1459 1457 1459 1462 1464 1466 1461 1462 1467 1466 1463 1468 1472 1472 1472 1472 1471 1470 1470 1471 1471 1471 1477 1484 1491
1528 1524 1520 1516 1512 1506 1501 1495 1491 1484 1478 1474 1470 1467 1470 1469 1459 1458 1457 1457 1457 1455 1456 1459 1459 1462 1461 1461 1461 1460 1463 1465 1467 1470 1472 1471 1470 1471 1472 1472 1474 1473 1476 1483 1489
1526 1521 1516 1512 1507 1502 1497 1492 1486 1479 1474 1471 1470 1467 1465 1459 1457 1456 1456 1454 1453 1452 1451 1454 1458 1460 1458 1459 1460 1460 1462 1462 1463 1466 1468 1472 1470 1468 1470 1473 1475 1477 1478 1481 1487
1525 1519 1515 1510 1505 1499 1494 1488 1481 1474 1470 1468 1467 1467 1460 1455 1455 1453 1451 1452 1450 1449 1448 1451 1454 1458 1458 1456 1456 1458 1458 1456 1456 1464 1466 1468 1462 1463 1469 1472 1474 1477 1480 1483 1485
1522 1517 1512 1507 1502 1496 1491 1484 1477 1472 1469 1464 1464 1465 1458 1455 1453 1451 1449 1447 1446 1446 1444 1449 1451 1454 1455 1454 1457 1452 1448 1449 1453 1460 1461 1463 1462 1460 1469 1469 1472 1475 1479 1483 1487
1521 1517 1511 1505 1499 1493 1486 1479 1472 1471 1467 1465 1463 1467 1457 1455 1449 1446 1443 1441 1442 1443 1444 1447 1449 1454 1453 1443 1440 1442 1445 1448 1447 1457 1460 1461 1459 1466 1468 1468 1469 1474 1477 1482 1485
1519 1515 1509 1504 1497 1492 1483 1474 1473 1471 1467 1469 1467 1465 1456 1452 1446 1444 1440 1440 1439 1440 1438 1446 1449 1439 1439 1438 1435 1437 1442 1446 1448 1456 1454 1456 1457 1459 1465 1467 1467 1471 1474 1478 1483
1518 1513 1508 1502 1497 1493 1488 1485 1489 1489 1472 1464 1463 1461 1455 1451 1446 1442 1441 1440 1439 1437 1434 1445 1438 1429 1435 1444 1440 1439 1440 1443 1452 1457 1456 1458 1456 1458 1462 1464 1468 1469 1472 1475 1480
1516 1511 1505 1501 1496 1493 1490 1488 1485 1483 1481 1464 1462 1459 1456 1451 1445 1442 1442 1439 1439 1433 1429 1429 1428 1432 1437 1448 1449 1439 1437 1443 1447 1456 1458 1457 1454 1457 1463 1466 1467 1470 1472 1475 1477
1515 1509 1504 1499 1495 1491 1488 1486 1482 1480 1476 1460 1460 1458 1455 1449 1445 1442 1440 1441 1437 1434 1429 1428 1433 1431 1439 1441 1446 1446 1445 1446 1450 1452 1452 1457 1447 1448 1453 1463 1464 1468 1471 1475 1477
1514 1508 1503 1497 1495 1491 1488 1482 1480 1480 1464 1462 1461 1459 1455 1451 1448 1442 1440 1439 1436 1433 1433 1434 1435 1434 1435 1436 1449 1442 1449 1448 1447 1450 1453 1456 1457 1435 1454 1455 1458 1465 1470 1474 1477
1511 1506 1502 1499 1494 1490 1484 1482 1482 1478 1467 1462 1464 1460 1454 1448 1445 1443 1440 1439 1439 1436 1435 1433 1434 1434 1434 1439 1439 1445 1445 1451 1452 1454 1458 1451 1450 1432 1444 1451 1450 1463 1470 1474 1477
1510 1505 1501 1496 1491 1487 1482 1481 1479 1472 1471 1471 1468 1463 1456 1449 1445 1440 1437 1436 1432 1430 1432 1433 1436 1439 1442 1442 1443 1440 1444 1450 1455 1457 1442 1467 1454 1436 1452 1457 1462 1465 1469 1474 1477
1508 1504 1501 1497 1491 1486 1482 1480 1479 1485 1482 1478 1473 1464 1456 1452 1445 1442 1438 1432 1435 1432 1430 1428 1437 1441 1448 1440 1439 1439 1442 1437 1434 1434 1439 1465 1449 1436 1458 1462 1465 1467 1470 1474 1477
1506 1503 1501 1496 1491 1487 1485 1488 1493 1493 1490 1483 1471 1462 1457 1455 1457 1447 1445 1442 1440 1439 1433 1432 1437 1445 1445 1447 1442 1447 1447 1448 1451 1462 1437 1438 1444 1456 1459 1462 1465 1469 1472 1474 1478
1504 1502 1501 1496 1492 1488 1487 1493 1493 1495 1492 1485 1476 1468 1462 1458 1457 1450 1448 1450 1447 1445 1444 1439 1440 1448 1448 1448 1449 1442 1447 1443 1444 1445 1437 1441 1442 1431 1451 1457 1465 1470 1472 1474 1477
1503 1503 1502 1496 1494 1493 1499 1502 1496 1494 1493 1489 1482 1474 1468 1469 1464 1456 1455 1451 1452 1446 1445 1442 1438 1449 1449 1449 1441 1447 1448 1449 1448 1454 1432 1428 1434 1455 1458 1462 1463 1468 1472 1475 1477
1503 1504 1503 1497 1499 1504 1504 1506 1500 1494 1492 1490 1487 1479 1475 1470 1465 1460 1459 1459 1456 1450 1445 1447 1443 1441 1449 1451 1452 1448 1443 1444 1434 1454 1461 1448 1439 1461 1462 1463 1465 1469 1472 1476 1478
1506 1506 1505 1501 1505 1508 1508 1505 1500 1496 1493 1490 1488 1484 1480 1475 1469 1465 1462 1463 1460 1455 1452 1450 1450 1445 1450 1452 1450 1447 1448 1452 1454 1455 1451 1436 1440 1459 1462 1465 1467 1469 1472 1475 1477
1507 1506 1508 1506 1512 1512 1511 1506 1498 1499 1496 1494 1490 1484 1480 1475 1472 1470 1464 1462 1462 1459 1456 1454 1457 1454 1430 1443 1448 1450 1452 1451 1448 1441 1453 1448 1450 1456 1461 1465 1468 1470 1472 1474 1476
1509 1511 1513 1513 1512 1513 1514 1510 1502 1503 1498 1495 1488 1487 1486 1481 1476 1472 1470 1466 1463 1463 1460 1459 1454 1460 1457 1456 1454 1454 1457 1458 1451 1451 1441 1451 1453 1459 1463 1467 1469 1470 1472 1474 1474
1512 1512 1512 1513 1515 1514 1513 1507 1504 1504 1503 1495 1493 1488 1485 1483 1481 1478 1477 1474 1473 1466 1465 1463 1457 1462 1459 1457 1457 1455 1456 1458 1461 1459 1460 1464 1461 1465 1467 1468 1468 1469 1470 1471 1471
1511 1512 1513 1514 1513 1514 1510 1507 1504 1504 1499 1497 1494 1489 1484 1484 1484 1481 1480 1480 1479 1477 1471 1468 1463 1460 1450 1462 1466 1451 1463 1463 1461 1464 1459 1456 1458 1466 1466 1467 1468 1468 1469 1470 1470